RAMEN44 OKDI-OKDI

Flight info

Callsign RAMEN44
Flight time N/A
Altitude 1500
Route OKDI VFR
Aircraft H60/L-L/C

Departure

Time 2026-04-22 14:57
Airport Udairi Army Air Field (OKDI)

Arrival

Time N/A
Airport Udairi Army Air Field (OKDI)
Time Latitude Longitude Altitude Speed Heading
2026-04-22 14:49 29.69938 47.43408 422 ft 0 kts 211°
2026-04-22 14:51 29.69933 47.43404 426 ft 0 kts 212°
2026-04-22 14:51 29.69925 47.43399 428 ft 0 kts 213°
2026-04-22 14:51 29.69924 47.43398 429 ft 0 kts 214°
2026-04-22 14:54 29.69924 47.43397 429 ft 0 kts 214°
2026-04-22 14:54 29.69922 47.43396 430 ft 0 kts 214°
2026-04-22 14:54 29.69921 47.43395 430 ft 1 kts 214°
2026-04-22 14:54 29.69911 47.43369 434 ft 25 kts 221°
2026-04-22 14:55 29.69575 47.43166 456 ft 66 kts 161°
2026-04-22 14:55 29.69085 47.43113 483 ft 84 kts 182°
2026-04-22 14:55 29.68541 47.43029 579 ft 70 kts 191°
2026-04-22 14:55 29.68090 47.42951 589 ft 64 kts 194°
2026-04-22 14:56 29.67662 47.42829 597 ft 64 kts 199°
2026-04-22 14:56 29.67225 47.42665 606 ft 72 kts 204°
2026-04-22 14:56 29.66847 47.42269 591 ft 76 kts 227°
2026-04-22 14:56 29.66789 47.41656 565 ft 87 kts 269°
2026-04-22 14:57 29.67261 47.41159 738 ft 100 kts 323°
2026-04-22 14:57 29.67891 47.40895 1112 ft 97 kts 339°
2026-04-22 14:57 29.68628 47.40591 1076 ft 129 kts 339°
2026-04-22 14:57 29.69499 47.40218 1076 ft 139 kts 339°
2026-04-22 14:58 29.70390 47.39831 1113 ft 133 kts 339°
2026-04-22 14:58 29.71244 47.39461 1155 ft 122 kts 339°
2026-04-22 14:58 29.71990 47.39169 1125 ft 109 kts 342°
2026-04-22 14:58 29.72730 47.39092 1123 ft 106 kts 354°